Beaufort, SC

12:46 PM EDT on August 31, 2016 (GMT -0400)
Beaufort

Weather History for KARW - March, 2013

Change the Weather History Date:

Tuesday, March 26, 2013

  Actual Average (KNBC) Record (KNBC)
Temperature  
Mean Temperature 43 °F -  
Max Temperature 51 °F 69 °F 85 °F (1938)
Min Temperature 35 °F 49 °F 33 °F (1940)
Degree Days  
Heating Degree Days 22    
Moisture  
Dew Point 24 °F    
Average Humidity 46    
Maximum Humidity 65    
Minimum Humidity 35    
Precipitation  
Precipitation 0.00 in - - ()
Sea Level Pressure  
Sea Level Pressure 30.08 in    
Wind  
Wind Speed 14 mph (WNW)    
Max Wind Speed 21 mph    
Max Gust Speed 33 mph    
Visibility 10 miles    
Events      
Averages and records for this station are not official NWS values.
T = Trace of Precipitation, MM = Missing Value Source: NWS Daily Summary

Daily Weather History Graph

Daily Weather History Graph

Search for Another Location

Airport or City:

Trip Planner

Search our weather history database for the weather conditions in past years. The results will help you decide how hot, cold, wet, or windy it might be!

Date:

Astronomy

Mar. 26, 2013 Rise Set
Actual Time 7:18 AM EDT 7:38 PM EDT
Civil Twilight 6:53 AM EDT 8:03 PM EDT
Nautical Twilight 6:24 AM EDT 8:31 PM EDT
Astronomical Twilight 5:55 AM EDT 9:01 PM EDT
Moon 7:12 PM EDT (3/26) 6:32 AM EDT (3/26)
Length of Visible Light 13h 09m
Length of Day
12h 20m
Waxing Gibbous, 99% of the Moon is Illuminated
Mar 26
Waxing Gibbous
Mar 27
Full
Apr 3
Last Quarter
Apr 10
New
Apr 18
First Quarter

Hourly Weather History & Observations

Time (EDT) Temp. Windchill Dew Point Humidity Pressure Visibility Wind Dir Wind Speed Gust Speed Precip Events Conditions
12:15 AM 42.8 °F 35.1 °F 21.2 °F 42% 30.01 in 10.0 mi WNW 16.1 mph 33.4 mph N/A   Clear
12:55 AM 42.8 °F 34.8 °F 21.2 °F 42% 30.02 in 10.0 mi WNW 17.3 mph 25.3 mph N/A   Clear
1:15 AM 41.0 °F 33.1 °F 21.2 °F 45% 30.02 in 10.0 mi WNW 15.0 mph 23.0 mph N/A   Clear
1:35 AM 41.0 °F 32.8 °F 23.0 °F 49% 30.03 in 10.0 mi WNW 16.1 mph 21.9 mph N/A   Clear
1:55 AM 41.0 °F 32.8 °F 21.2 °F 45% 30.03 in 10.0 mi WNW 16.1 mph 24.2 mph N/A   Clear
2:15 AM 41.0 °F 33.5 °F 21.2 °F 45% 30.03 in 10.0 mi WNW 13.8 mph 19.6 mph N/A   Clear
2:35 AM 41.0 °F 35.2 °F 21.2 °F 45% 30.03 in 10.0 mi WNW 9.2 mph 21.9 mph N/A   Clear
2:55 AM 41.0 °F 34.3 °F 21.2 °F 45% 30.03 in 10.0 mi West 11.5 mph 17.3 mph N/A   Clear
3:15 AM 39.2 °F 32.0 °F 21.2 °F 49% 30.03 in 10.0 mi WNW 11.5 mph 19.6 mph N/A   Clear
3:35 AM 39.2 °F 32.0 °F 21.2 °F 49% 30.03 in 10.0 mi West 11.5 mph 18.4 mph N/A   Clear
3:55 AM 39.2 °F 30.8 °F 21.2 °F 49% 30.03 in 10.0 mi West 15.0 mph 18.4 mph N/A   Clear
4:15 AM 37.4 °F 29.8 °F 23.0 °F 56% 30.03 in 10.0 mi West 11.5 mph - N/A   Clear
4:35 AM 37.4 °F 28.5 °F 23.0 °F 56% 30.02 in 10.0 mi West 15.0 mph 19.6 mph N/A   Clear
4:55 AM 37.4 °F 29.3 °F 23.0 °F 56% 30.03 in 10.0 mi West 12.7 mph 18.4 mph N/A   Clear
5:35 AM 37.4 °F 30.8 °F 23.0 °F 56% 30.03 in 10.0 mi West 9.2 mph 19.6 mph N/A   Clear
5:55 AM 37.4 °F 29.8 °F 23.0 °F 56% 30.03 in 10.0 mi West 11.5 mph - N/A   Clear
6:15 AM 37.4 °F 29.8 °F 23.0 °F 56% 30.03 in 10.0 mi West 11.5 mph 17.3 mph N/A   Clear
6:35 AM 37.4 °F 31.4 °F 24.8 °F 60% 30.04 in 10.0 mi West 8.1 mph - N/A   Clear
6:55 AM 35.6 °F 29.2 °F 24.8 °F 65% 30.04 in 10.0 mi West 8.1 mph - N/A   Clear
7:15 AM 35.6 °F 28.0 °F 24.8 °F 65% 30.05 in 10.0 mi West 10.4 mph 17.3 mph N/A   Clear
7:35 AM 35.6 °F 27.5 °F 24.8 °F 65% 30.05 in 10.0 mi West 11.5 mph - N/A   Clear
7:55 AM 37.4 °F 29.3 °F 24.8 °F 60% 30.05 in 10.0 mi West 12.7 mph 18.4 mph N/A   Clear
8:15 AM 37.4 °F 28.5 °F 24.8 °F 60% 30.07 in 10.0 mi West 15.0 mph 20.7 mph N/A   Clear
8:35 AM 39.2 °F 29.6 °F 24.8 °F 56% 30.07 in 10.0 mi West 19.6 mph 23.0 mph N/A   Clear
8:55 AM 41.0 °F 33.1 °F 24.8 °F 53% 30.07 in 10.0 mi WNW 15.0 mph 19.6 mph N/A   Clear
9:15 AM 41.0 °F 33.5 °F 24.8 °F 53% 30.08 in 10.0 mi WNW 13.8 mph 23.0 mph N/A   Clear
9:35 AM 41.0 °F 34.3 °F 24.8 °F 53% 30.07 in 10.0 mi West 11.5 mph 24.2 mph N/A   Clear
10:15 AM 42.8 °F 35.8 °F 24.8 °F 49% 30.06 in 10.0 mi NW 13.8 mph 21.9 mph N/A   Clear
10:35 AM 44.6 °F 38.1 °F 24.8 °F 46% 30.06 in 10.0 mi WNW 13.8 mph 20.7 mph N/A   Clear
10:55 AM 44.6 °F 38.1 °F 24.8 °F 46% 30.06 in 10.0 mi WNW 13.8 mph 19.6 mph N/A   Clear
11:15 AM 44.6 °F 38.4 °F 24.8 °F 46% 30.06 in 10.0 mi WNW 12.7 mph - N/A   Clear
11:35 AM 46.4 °F 39.5 °F 24.8 °F 43% 30.06 in 10.0 mi NW 17.3 mph 21.9 mph N/A   Scattered Clouds
11:55 AM 48.2 °F - 24.8 °F 40% 30.06 in 10.0 mi West 18.4 mph 25.3 mph N/A   Mostly Cloudy
12:15 PM 46.4 °F 39.2 °F 24.8 °F 43% 30.06 in 10.0 mi NW 18.4 mph 23.0 mph N/A   Mostly Cloudy
12:35 PM 48.2 °F - 24.8 °F 40% 30.06 in 10.0 mi WNW 18.4 mph 27.6 mph N/A   Mostly Cloudy
12:55 PM 48.2 °F - 23.0 °F 37% 30.06 in 10.0 mi West 15.0 mph 23.0 mph N/A   Mostly Cloudy
1:15 PM 51.8 °F - 24.8 °F 35% 30.06 in 10.0 mi West 18.4 mph 27.6 mph N/A   Overcast
1:55 PM 50.0 °F - 23.0 °F 35% 30.06 in 10.0 mi West 20.7 mph 25.3 mph N/A   Mostly Cloudy
2:15 PM 50.0 °F - 23.0 °F 35% 30.06 in 10.0 mi West 15.0 mph 24.2 mph N/A   Overcast
2:55 PM 50.0 °F - 23.0 °F 35% 30.06 in 10.0 mi West 18.4 mph 25.3 mph N/A   Overcast
3:15 PM 50.0 °F - 23.0 °F 35% 30.06 in 10.0 mi WNW 20.7 mph 31.1 mph N/A   Overcast
3:35 PM 50.0 °F - 23.0 °F 35% 30.06 in 10.0 mi WNW 18.4 mph 27.6 mph N/A   Overcast
3:55 PM 50.0 °F - 23.0 °F 35% 30.06 in 10.0 mi WNW 17.3 mph 28.8 mph N/A   Overcast
4:15 PM 50.0 °F - 23.0 °F 35% 30.06 in 10.0 mi WNW 20.7 mph 26.5 mph N/A   Overcast
4:55 PM 50.0 °F - 23.0 °F 35% 30.07 in 10.0 mi NW 17.3 mph 26.5 mph N/A   Mostly Cloudy
5:15 PM 50.0 °F - 23.0 °F 35% 30.07 in 10.0 mi NW 16.1 mph 24.2 mph N/A   Mostly Cloudy
5:35 PM 50.0 °F - 23.0 °F 35% 30.08 in 10.0 mi WNW 15.0 mph 25.3 mph N/A   Mostly Cloudy
5:55 PM 50.0 °F - 24.8 °F 37% 30.09 in 10.0 mi NW 12.7 mph 17.3 mph N/A   Overcast
6:15 PM 50.0 °F - 23.0 °F 35% 30.10 in 10.0 mi WNW 13.8 mph 24.2 mph N/A   Overcast
6:35 PM 50.0 °F - 23.0 °F 35% 30.11 in 10.0 mi WNW 13.8 mph 20.7 mph N/A   Overcast
6:55 PM 50.0 °F - 23.0 °F 35% 30.11 in 10.0 mi WNW 12.7 mph 20.7 mph N/A   Overcast
7:15 PM 50.0 °F - 26.6 °F 40% 30.12 in 10.0 mi WNW 11.5 mph 17.3 mph N/A   Mostly Cloudy
7:35 PM 48.2 °F - 24.8 °F 40% 30.13 in 10.0 mi WNW 16.1 mph 23.0 mph N/A   Scattered Clouds
7:55 PM 46.4 °F 40.7 °F 26.6 °F 46% 30.14 in 10.0 mi West 12.7 mph 18.4 mph N/A   Clear
8:15 PM 46.4 °F 40.7 °F 26.6 °F 46% 30.15 in 10.0 mi West 12.7 mph 19.6 mph N/A   Clear
8:35 PM 46.4 °F 41.1 °F 26.6 °F 46% 30.15 in 10.0 mi West 11.5 mph - N/A   Clear
8:55 PM 46.4 °F 41.5 °F 26.6 °F 46% 30.17 in 10.0 mi West 10.4 mph 18.4 mph N/A   Clear
9:15 PM 44.6 °F 39.7 °F 26.6 °F 49% 30.17 in 10.0 mi West 9.2 mph - N/A   Clear
9:35 PM 44.6 °F 39.7 °F 26.6 °F 49% 30.18 in 10.0 mi West 9.2 mph 17.3 mph N/A   Clear
10:15 PM 44.6 °F 38.8 °F 26.6 °F 49% 30.20 in 10.0 mi West 11.5 mph 16.1 mph N/A   Clear
10:35 PM 44.6 °F 39.2 °F 26.6 °F 49% 30.20 in 10.0 mi West 10.4 mph 17.3 mph N/A   Clear
11:15 PM 42.8 °F 36.6 °F 26.6 °F 53% 30.21 in 10.0 mi West 11.5 mph - N/A   Clear
11:35 PM 42.8 °F 36.6 °F 26.6 °F 53% 30.22 in 10.0 mi West 11.5 mph - N/A   Clear